Location: 5810 Zion Rd, Cleves, OH 45002, USA
(39.1922°N, 84.7113°W)
Time: 18:21:46
(UTC-05:00)

Vanguard 3 - Pass Details

Date: 14 December 2019
Orbit: 507 x 3263 km, 33.4° (Epoch: 22 January)

Event Time Altitude Azimuth Distance (km) Brightness Sun altitude
Rises 11:12:41 0° 272° (W) 4,377 10.7 24.8°
Reaches altitude 10° 11:15:11 10° 268° (W) 3,693 10.4 25.0°
Maximum altitude 11:25:07 57° 193° (SSW) 2,512 10.6 25.6°
Drops below altitude 10° 11:41:46 10° 122° (ESE) 5,915 12.3 26.4°
Sets 11:46:59 0° 119° (ESE) 7,123 12.5 26.6°
